Overview Statistics Trail Chart Weather Telemetry Raw packets
 

This is the latest recevied weather packets stored in our database for station/object K7PMV-13. If no packets are shown the sender has not sent any weather packets the latest 10 day(s).

<< 52 53 54 55 56 57 58 >>
Time Temp. Humidity Pressure Rain* Wind** Luminosity Snow
1777328128 27.78° C 20% 1007.8 hPa 0 mm - 707 W/m² -
1777327825 27.78° C 20% 1007.9 hPa 0 mm - 722 W/m² -
1777327523 27.78° C 20% 1008 hPa 0 mm - 735 W/m² -
1777327221 27.78° C 20% 1008.1 hPa 0 mm - 747 W/m² -
1777326918 27.78° C 20% 1008.2 hPa 0 mm - 761 W/m² -
1777326610 27.78° C 19% 1008.3 hPa 0 mm - 773 W/m² -
1777326301 27.78° C 19% 1008.5 hPa 0 mm - 791 W/m² -
1777325549 28.33° C 20% 1008.6 hPa 0 mm - 816 W/m² -
1777325247 25° C 20% 1008.8 hPa 0 mm - 831 W/m² -
1777324886 27.22° C 20% 1009 hPa 0 mm - 840 W/m² -
1777324543 27.22° C 21% 1009 hPa 0 mm - 849 W/m² -
1777324236 26.67° C 20% 1009.1 hPa 0 mm - 861 W/m² -
1777323931 27.22° C 20% 1009.1 hPa 0 mm - 870 W/m² -
1777323629 27.22° C 21% 1009.1 hPa 0 mm - 879 W/m² -
1777323326 27.22° C 20% 1009.2 hPa 0 mm - 888 W/m² -
1777323024 27.22° C 19% 1009.3 hPa 0 mm - 898 W/m² -
1777322721 27.22° C 20% 1009.3 hPa 0 mm - 909 W/m² -
1777322219 26.67° C 21% 1009.4 hPa 0 mm - 912 W/m² -
1777321914 26.67° C 21% 1009.5 hPa 0 mm - 918 W/m² -
1777321612 27.22° C 22% 1009.5 hPa 0 mm - 925 W/m² -
1777321309 26.67° C 23% 1009.6 hPa 0 mm - 928 W/m² -
1777320999 27.22° C 22% 1009.6 hPa 0 mm - 932 W/m² -
1777320697 27.22° C 22% 1009.7 hPa 0 mm - 937 W/m² -
1777320394 26.67° C 24% 1009.8 hPa 0 mm - 940 W/m² -
1777320092 25.56° C 23% 1009.9 hPa 0 mm - 942 W/m² -

* Rain latest hour (hover to see other rain measurements)
** Current wind speed in m/s (hover to see current wind gust speed)